GFSMA_con_3kmhel_210.txt.gz
Helicity
68 48 49 54 48 49 43 63 69 75 86 88 85 80 73 69 69 87 92 177 131 125 113 103 107 71 53 93 96 115 130 123 109 113 93 98 96 69 64 68 72 79 90
87 76 60 44 51 55 71 65 78 86 89 89 89 97 106 110 103 102 106 134 153 129 126 123 112 103 74 74 80 118 134 121 108 105 112 116 113 97 58 73 87 99 107
83 68 75 78 62 69 67 70 74 76 78 84 82 82 92 94 99 107 109 115 158 148 147 166 153 145 100 93 99 99 80 103 103 108 115 133 124 127 124 85 88 99 109
53 64 64 52 67 70 63 81 85 88 89 119 119 119 115 113 116 126 128 136 130 149 152 155 174 188 171 121 103 105 100 72 80 102 139 129 130 143 142 116 94 94 122
76 65 42 43 52 56 84 81 118 146 165 161 167 177 187 224 211 187 200 178 142 152 150 153 166 192 190 144 113 98 90 123 113 85 110 129 148 149 142 134 118 108 117
64 55 64 71 92 73 89 94 95 113 138 161 180 217 244 263 282 327 301 260 190 169 161 167 197 174 218 182 130 94 72 103 124 116 89 97 142 158 139 144 142 127 130
101 85 81 103 107 126 126 123 136 146 171 178 210 217 242 254 264 261 291 313 312 230 209 226 292 288 291 204 164 118 78 90 104 125 130 110 111 131 149 158 157 158 138
134 131 138 137 134 140 129 136 146 165 171 184 222 232 252 263 263 199 227 262 300 309 345 321 306 351 364 298 279 175 76 56 81 99 133 146 141 103 126 145 158 150 142
118 100 107 116 118 121 137 140 138 154 172 189 225 285 316 297 294 286 215 208 181 263 267 308 315 379 506 540 412 356 209 121 71 62 111 144 152 136 92 108 141 140 151
115 109 107 112 111 113 110 114 126 157 182 200 230 267 290 246 271 238 319 285 231 205 181 222 201 217 341 541 560 545 429 272 170 93 76 119 130 137 125 94 124 131 153
107 96 91 88 78 87 105 125 145 172 193 210 247 259 286 321 267 319 272 239 234 226 211 223 245 223 264 448 522 497 434 349 385 260 111 114 127 145 150 123 112 105 143
91 69 61 64 75 89 110 137 150 162 184 209 234 250 274 315 293 282 320 222 187 152 111 184 236 246 279 427 463 521 634 440 338 424 300 147 128 132 135 135 113 93 111
57 36 41 45 74 102 117 137 164 177 189 211 198 223 219 245 214 190 210 215 212 184 244 201 203 222 276 321 418 435 685 538 481 419 424 422 176 148 166 132 98 92 113
23 30 52 83 95 120 134 148 180 187 180 202 178 191 230 238 225 206 239 239 232 220 208 255 222 308 294 293 360 245 606 670 545 598 575 555 369 196 166 145 117 98 115
44 66 97 107 122 127 130 147 169 165 175 184 204 230 283 249 214 178 169 160 204 170 62 127 252 205 324 353 359 394 369 537 654 636 647 612 487 300 196 189 155 149 120
79 99 109 128 136 143 135 138 170 172 196 216 209 217 225 194 167 165 99 52 89 121 81 91 128 237 225 306 312 432 422 403 831 854 624 613 597 433 301 209 202 176 185
105 117 131 123 123 128 123 163 164 161 177 173 176 177 160 151 154 126 102 89 89 122 124 113 103 152 351 231 261 305 382 433 711 558 620 715 610 547 501 289 266 257 219
106 118 116 122 121 126 137 169 185 165 152 148 157 163 162 172 145 154 178 181 149 151 148 73 105 270 377 332 336 325 436 433 384 766 532 570 679 628 635 416 390 303 255
121 122 137 124 113 119 146 161 146 133 130 140 161 169 175 178 178 177 158 153 155 136 95 144 88 250 411 367 353 345 334 555 655 939 704 607 629 729 560 478 432 341 279
105 114 116 108 113 113 128 127 121 117 124 149 148 153 154 151 140 117 126 130 145 137 117 65 64 233 400 382 423 508 492 582 730 854 561 681 770 694 531 484 423 314 256
107 110 100 96 90 117 116 90 75 89 111 124 119 148 145 116 92 121 141 129 121 155 151 132 19 152 432 479 459 432 538 679 699 847 930 780 761 663 497 458 332 320 255
106 98 80 74 89 95 51 35 48 96 82 113 137 104 87 88 101 97 115 120 168 178 139 119 40 140 299 462 497 590 674 718 795 779 1143 1029 839 701 570 523 374 365 216
82 59 64 80 63 44 44 30 46 73 77 75 84 91 81 91 98 149 122 140 195 213 142 90 126 70 274 372 625 642 546 615 648 838 1059 1035 803 758 574 424 356 330 232
60 68 75 64 51 51 39 44 24 68 75 72 71 44 37 91 231 260 245 238 167 173 185 50 35 90 251 413 584 574 586 627 693 913 1000 1115 854 775 602 502 382 352 189
64 81 77 68 45 48 42 24 17 64 61 46 47 19 45 119 199 185 187 110 95 107 156 62 -57 51 257 367 490 539 624 807 732 919 935 971 913 819 590 520 412 281 254
72 92 82 58 35 53 29 -1 34 44 29 45 35 27 73 115 198 159 170 189 151 126 158 95 91 195 247 394 583 670 791 883 997 1012 899 925 960 882 621 407 370 345 239

GFSMA_con_3kmhel_216.txt.gz
Helicity
106 111 112 98 96 80 81 87 83 69 80 94 91 72 76 73 63 72 84 140 161 161 137 123 132 145 155 170 192 172 174 158 141 141 147 156 142 138 118 114 127 125 120
117 115 134 129 106 92 56 59 78 67 90 85 60 60 62 65 66 59 76 96 144 163 175 160 164 184 184 190 202 207 186 193 162 140 133 141 151 140 152 135 124 133 112
112 114 119 105 105 106 85 81 77 106 103 86 55 62 63 97 102 95 115 133 157 172 200 208 211 206 226 241 254 255 238 227 214 174 119 142 146 131 153 157 159 112 66
112 114 100 100 115 123 139 144 159 136 88 72 61 75 90 115 110 125 137 177 199 214 233 238 235 224 223 225 244 264 221 219 200 196 166 149 136 132 146 163 166 122 106
106 108 106 115 141 113 127 135 112 83 78 81 80 85 103 137 141 152 169 190 199 246 280 293 268 246 212 214 218 228 204 189 175 137 145 167 148 141 136 142 121 132 131
135 132 124 105 98 116 95 83 55 69 82 93 108 118 142 156 156 172 179 186 214 228 238 221 257 261 211 207 211 213 206 211 174 138 121 124 130 145 151 132 135 124 123
145 142 123 91 91 85 113 109 121 126 119 114 121 130 163 178 184 220 222 222 205 205 216 212 211 196 223 175 194 184 189 197 209 153 157 149 138 178 169 149 139 133 133
213 157 176 185 213 213 198 162 150 125 117 116 130 132 141 165 213 203 207 265 247 222 195 177 177 164 156 192 176 138 182 149 147 204 238 217 182 200 171 154 159 148 131
320 342 280 275 229 178 151 145 140 118 107 115 140 164 156 153 176 241 202 254 303 316 294 257 278 230 215 190 182 217 130 145 139 223 221 222 234 254 175 139 128 109 138
301 302 246 224 198 179 159 130 135 145 135 128 151 167 194 207 201 181 240 218 200 197 229 229 286 285 197 190 161 145 116 79 144 151 209 262 314 257 215 143 162 127 113
294 251 245 210 188 163 149 144 129 129 140 162 174 187 198 207 206 212 189 183 184 212 230 254 245 307 307 236 196 140 118 108 92 117 125 238 294 310 214 193 118 133 192
197 236 193 195 168 152 143 151 145 132 132 155 174 183 193 209 186 183 194 196 200 203 201 191 196 260 270 288 278 126 100 114 91 74 63 9 149 195 294 203 201 169 203
228 220 215 183 168 152 145 129 121 126 137 141 158 174 177 182 183 196 212 216 233 229 243 238 213 173 197 271 238 176 145 150 149 127 103 51 87 116 287 212 185 136 142
265 227 185 157 156 138 109 117 135 142 159 170 173 172 172 168 172 197 224 240 206 207 207 199 160 197 193 181 164 146 151 153 140 123 117 111 95 57 181 202 351 192 139
193 207 184 162 137 142 136 131 115 120 136 145 158 175 179 188 222 251 248 236 271 244 184 151 145 182 179 184 148 102 135 138 140 146 125 84 83 81 161 261 358 320 205
197 186 163 139 107 88 89 96 112 116 132 139 135 136 149 155 164 181 206 232 272 301 238 227 171 126 110 113 95 98 104 112 107 102 123 139 94 81 108 345 561 588 368
177 154 128 114 111 127 130 150 148 130 133 113 101 111 109 110 136 163 183 206 234 254 282 205 197 161 127 126 118 134 88 116 119 54 64 117 135 176 204 506 252 582 505
183 157 134 106 114 120 143 131 116 107 91 85 90 82 104 143 157 158 181 200 200 197 212 175 145 142 129 110 93 75 136 123 105 100 65 120 153 136 192 313 658 644 571
169 117 89 107 119 124 109 99 88 96 86 87 77 96 120 144 160 189 206 213 201 178 160 164 150 145 136 128 102 106 43 90 138 116 81 75 129 163 457 494 854 587 686
120 99 91 116 113 94 90 94 99 95 90 82 88 109 130 131 148 167 184 193 178 170 166 180 179 166 142 119 121 91 88 107 160 132 129 65 107 232 519 590 622 920 787
75 125 109 106 83 81 98 107 94 90 84 81 104 110 110 101 93 95 127 117 116 145 178 208 220 184 155 111 110 128 72 179 288 190 126 128 217 410 688 1002 974 832 620
140 109 98 74 89 97 124 109 104 87 77 91 107 96 78 67 89 62 55 73 126 175 203 241 247 237 178 149 102 119 133 193 98 233 255 353 369 544 696 505 405 566 705
130 99 87 102 101 104 114 118 99 79 79 86 86 90 76 82 77 90 74 100 114 130 178 208 209 281 194 135 100 142 106 134 172 194 390 460 533 450 400 648 872 842 652
87 59 71 104 104 116 122 104 86 79 74 57 61 66 52 74 80 87 94 99 115 126 155 187 208 193 136 73 87 118 105 245 256 318 401 465 502 577 645 795 807 586 520
67 68 106 107 110 108 90 81 73 67 62 55 62 57 57 60 40 45 76 94 66 79 120 31 80 112 46 30 130 172 180 284 319 288 299 467 498 796 927 849 564 482 469
68 110 112 91 74 75 55 53 47 40 48 29 44 59 39 26 32 37 42 74 31 88 91 41 47 33 -45 97 203 173 231 267 366 326 319 507 612 764 792 646 509 438 413

GFSMA_con_3kmhel_219.txt.gz
Helicity
94 142 130 135 108 97 73 69 77 72 62 42 54 69 63 59 57 58 47 50 87 98 108 115 112 111 132 172 189 190 185 185 183 178 181 170 169 154 142 179 176 171 167
106 117 115 108 110 110 87 70 69 68 64 73 64 67 40 43 35 43 42 59 82 115 134 142 143 150 162 167 187 199 202 211 221 204 180 165 125 138 142 140 163 164 147
104 113 105 110 102 105 96 93 86 97 100 111 94 55 51 61 81 86 96 90 90 102 147 169 166 158 149 163 179 195 194 211 215 216 205 205 151 130 152 132 144 144 139
125 128 124 105 87 110 128 136 140 142 142 121 83 58 61 78 85 90 95 128 140 144 146 136 156 151 135 130 139 163 182 183 198 205 208 203 175 141 137 152 144 150 147
132 135 124 108 130 148 161 162 165 138 118 90 65 73 76 84 85 103 115 126 137 151 164 150 129 135 140 131 121 104 81 133 204 214 223 212 204 194 164 144 160 152 149
135 150 142 145 162 154 143 126 127 123 114 81 79 82 86 103 123 134 147 154 161 172 189 188 198 193 130 105 94 70 66 52 94 171 209 215 205 191 198 156 159 133 128
179 193 174 158 160 160 141 149 147 126 95 106 91 89 94 90 129 159 183 190 191 195 188 186 184 182 186 127 113 74 50 46 62 83 132 201 231 241 208 170 168 146 117
219 216 196 194 204 267 285 241 197 162 136 143 126 89 67 68 120 133 161 152 141 178 180 179 185 182 176 193 188 139 102 92 64 33 54 146 215 278 287 200 239 138 118
266 321 336 320 301 268 263 237 204 192 160 143 156 123 99 81 83 130 177 177 196 204 210 193 192 205 213 221 211 201 166 144 115 61 60 41 100 196 355 311 291 230 121
458 441 400 333 292 277 266 230 207 186 166 127 117 143 170 162 136 105 158 195 143 164 156 161 179 197 211 229 221 182 163 154 112 68 35 48 45 25 277 494 355 215 93
430 357 335 317 304 272 252 210 202 183 154 133 126 131 139 148 162 176 96 179 178 176 175 172 161 129 170 207 206 166 124 130 110 101 75 45 76 45 -70 485 339 238 139
427 394 356 319 293 258 247 214 181 165 140 142 145 143 141 140 127 135 137 127 135 170 180 210 180 142 121 126 134 148 167 117 106 85 74 44 34 26 -17 41 320 220 198
399 401 284 318 294 241 213 193 175 166 173 174 175 159 160 159 181 196 177 155 152 152 191 182 163 153 123 110 79 123 120 81 57 47 65 67 21 55 49 21 201 151 162
475 346 363 253 277 267 195 171 152 155 158 159 164 161 166 213 222 207 204 177 134 165 165 162 170 155 121 123 79 90 144 128 115 89 81 80 57 73 58 37 122 150 301
399 378 289 281 250 173 163 147 133 134 146 145 140 180 183 178 178 168 175 175 200 172 198 185 169 186 191 162 113 113 87 109 122 127 104 78 65 54 80 92 84 96 130
391 309 300 228 206 180 164 161 163 161 150 138 149 143 153 142 124 124 128 148 181 200 191 175 184 172 154 143 116 78 62 64 51 128 99 49 40 60 65 82 61 218 250
338 307 241 247 223 212 187 167 156 120 129 110 114 132 123 106 105 111 122 153 167 164 178 168 167 130 112 119 95 88 71 46 15 88 128 68 70 58 43 70 99 92 240
339 288 258 241 245 214 176 148 105 100 120 117 127 113 95 89 80 94 140 141 164 181 209 178 151 129 107 107 104 102 102 101 71 19 111 78 61 62 53 58 107 245 471
307 268 262 250 207 163 104 109 101 124 118 117 101 90 75 65 91 120 128 144 153 164 177 195 182 153 142 113 121 104 88 74 70 54 71 73 71 110 64 52 139 251 629
299 298 263 215 161 85 122 109 106 109 112 102 82 66 65 80 92 112 134 131 139 146 152 188 218 201 177 141 153 110 42 61 54 62 73 109 111 102 79 57 140 228 216
333 295 234 156 79 152 106 112 116 113 107 96 78 63 75 85 80 108 117 114 113 145 185 195 209 184 194 205 181 144 28 4 39 126 119 121 152 143 87 74 149 338 523
270 233 175 159 178 119 146 142 124 105 98 90 83 79 84 94 91 62 51 57 85 137 142 160 185 197 215 204 157 106 46 47 71 60 81 147 141 136 102 214 347 746 941
221 209 192 164 172 128 111 123 117 103 87 69 60 66 84 79 64 60 37 43 69 98 119 162 173 165 162 148 116 74 42 51 6 51 170 257 347 331 328 477 884 974 988
216 207 171 241 123 99 109 109 120 99 72 56 51 48 49 44 51 37 49 71 86 111 129 120 108 129 114 87 63 34 35 65 126 183 171 205 375 508 505 441 699 704 504
193 156 250 119 99 80 97 108 109 85 63 59 61 50 45 41 27 8 42 57 70 110 111 37 23 35 51 52 19 114 105 47 22 99 166 248 245 404 413 462 417 701 811
159 225 116 95 71 98 103 109 88 62 62 69 69 49 32 35 19 15 28 36 46 50 76 40 24 59 80 17 59 54 25 57 73 92 92 238 294 268 319 494 614 645 542

GFSMA_con_3kmhel_222.txt.gz
Helicity
108 101 81 92 87 96 80 67 61 61 55 53 45 51 55 51 48 55 55 24 21 39 53 61 85 93 97 110 114 117 121 128 133 137 150 157 159 149 133 123 122 128 133
102 108 89 85 102 95 83 78 74 69 65 69 57 59 52 54 45 47 37 38 23 34 55 64 66 70 73 81 109 127 127 129 134 147 162 169 146 126 122 104 85 121 125
106 118 117 104 95 97 88 92 82 85 76 89 81 92 80 62 53 55 56 57 54 42 39 53 65 75 79 84 91 111 143 142 141 146 167 187 177 154 139 141 117 111 114
89 105 122 114 118 128 124 121 118 118 117 125 107 78 61 56 57 58 68 79 86 90 86 79 89 89 82 72 72 82 88 91 75 117 172 195 214 199 183 171 164 134 110
96 102 104 107 126 131 140 158 171 171 157 130 100 79 75 73 72 71 71 79 87 105 131 138 134 140 139 124 99 88 75 77 80 63 65 143 208 219 217 201 183 177 143
121 120 102 112 137 167 179 187 174 155 141 132 135 110 87 76 84 97 96 102 109 124 156 173 180 171 133 122 120 111 104 97 109 81 57 22 63 166 184 231 225 181 192
136 154 136 155 163 172 164 152 168 159 171 171 137 107 89 91 110 115 117 123 135 159 175 181 190 189 185 142 121 94 92 92 114 110 115 88 36 40 80 322 250 277 196
159 190 196 188 200 206 186 207 215 221 203 190 153 97 87 92 146 152 137 125 119 144 140 166 186 188 187 200 219 168 140 134 130 133 136 145 133 109 89 42 245 381 264
209 235 277 259 265 269 287 298 269 226 212 204 191 178 168 132 87 83 134 135 157 163 168 156 185 183 163 165 163 159 141 134 121 114 124 99 82 80 91 35 44 79 534
318 352 372 341 335 338 347 306 274 250 214 193 194 203 207 203 149 129 123 144 109 148 131 144 158 140 126 134 156 158 164 130 50 80 79 60 66 64 82 119 58 43 65
390 408 409 394 416 394 351 304 281 283 246 231 202 178 160 167 185 210 186 140 163 146 158 163 142 110 106 85 70 61 95 114 90 44 51 3 39 38 77 77 51 46 -45
479 444 441 419 388 356 367 307 311 245 269 213 202 181 174 176 181 167 155 138 137 151 152 157 128 136 114 121 110 116 121 109 102 99 67 55 27 24 24 58 45 33 22
481 468 482 450 404 392 386 328 308 214 234 212 197 196 225 210 210 182 168 144 160 140 108 140 100 128 123 107 91 78 82 87 116 136 101 72 55 51 52 93 70 63 47
515 513 471 487 365 344 343 270 244 204 188 196 209 209 194 193 191 190 194 170 81 99 130 98 100 97 137 129 96 70 75 84 117 156 167 143 136 98 95 79 100 90 50
568 522 446 412 330 302 320 225 236 230 217 220 216 207 191 179 183 175 184 193 185 143 96 81 94 150 122 113 115 133 112 86 103 85 115 138 173 147 121 84 93 82 65
565 526 395 348 317 292 273 258 240 223 221 211 197 189 208 153 147 172 191 191 179 181 194 184 124 108 112 128 119 131 130 87 70 78 60 102 146 188 146 91 100 81 75
481 373 328 334 286 292 268 263 249 233 215 198 187 202 126 143 157 180 166 150 134 122 145 131 122 113 110 121 119 112 120 130 124 103 100 89 116 156 158 127 92 75 73
391 368 340 355 329 292 275 260 243 224 228 219 200 133 125 156 165 148 123 94 101 104 123 112 106 130 125 119 124 134 134 136 126 87 80 96 137 131 106 93 77 62 52
435 396 329 347 301 280 248 238 223 220 239 205 121 132 137 146 125 106 79 79 99 110 126 129 135 148 144 124 139 152 156 118 129 97 74 71 101 113 108 121 73 77 63
416 366 358 305 275 249 247 235 221 209 204 131 151 116 125 109 87 71 69 87 96 106 113 132 154 157 148 162 180 181 164 147 114 118 87 84 60 87 68 100 74 67 66
383 355 325 293 259 254 222 188 171 164 171 163 114 140 123 75 39 55 75 79 84 101 115 126 148 150 177 234 213 195 140 111 128 101 72 103 84 88 109 93 68 35 98
384 331 293 254 240 232 199 176 136 213 188 129 126 131 100 64 61 45 51 45 46 77 94 122 138 176 197 176 186 218 123 103 110 70 128 170 139 90 47 132 57 85 269
355 308 284 271 253 206 172 176 243 202 145 107 132 102 75 65 55 61 53 45 42 40 80 118 114 142 141 126 123 144 95 79 83 79 80 119 180 163 160 123 95 111 355
375 354 311 252 219 168 161 214 217 157 110 127 96 62 47 51 59 58 56 50 56 74 79 73 73 73 70 72 80 88 59 89 70 91 86 66 121 179 251 230 141 332 581
418 349 262 215 176 157 165 172 163 109 134 100 65 41 34 45 37 35 43 44 54 82 74 25 5 21 65 56 59 96 120 119 74 48 68 85 148 288 426 490 508 619 1085
378 311 234 183 170 145 162 136 115 112 112 83 63 41 27 27 21 26 30 31 37 55 58 55 50 22 40 46 62 62 90 37 18 11 25 96 119 177 193 349 488 660 547

GFSMA_con_3kmhel_228.txt.gz
Helicity
124 103 65 71 74 89 75 63 63 67 68 66 65 60 61 60 59 67 70 75 84 95 77 50 36 29 27 35 44 56 62 70 77 85 96 110 114 111 106 91 80 95 125
162 120 101 78 69 77 75 68 70 70 71 74 65 59 55 58 59 59 82 98 88 76 60 48 43 46 50 55 58 64 65 68 83 91 101 127 137 140 145 144 133 117 115
179 151 123 101 70 70 66 74 82 84 78 77 64 74 71 75 78 79 81 64 53 50 46 50 52 61 68 68 68 70 79 92 93 99 97 106 123 145 143 146 147 143 133
182 171 146 115 87 87 83 87 89 87 85 89 87 79 84 92 90 77 70 61 61 56 57 60 72 83 89 97 107 113 119 126 132 138 145 150 138 136 133 114 89 105 129
183 176 151 125 114 105 104 98 100 100 97 90 86 88 91 80 74 74 67 76 74 68 71 86 102 106 122 143 158 160 156 148 150 151 161 157 178 177 165 149 152 121 93
185 183 154 135 136 123 120 125 113 113 97 83 84 71 66 61 66 64 71 87 84 103 118 117 104 107 148 164 166 165 159 166 187 218 241 259 262 266 193 181 183 187 195
198 194 167 148 148 135 121 123 129 132 147 138 127 97 83 85 85 85 92 127 139 134 125 112 100 104 101 115 139 151 175 197 207 207 229 253 249 234 211 235 193 195 200
211 207 194 173 168 154 148 174 200 201 191 177 174 161 129 126 159 164 157 153 153 147 140 103 90 95 109 101 99 138 157 191 201 224 224 222 227 230 219 208 198 174 202
226 220 214 203 201 196 188 216 230 233 240 225 204 193 175 134 130 123 147 157 147 122 108 102 94 76 84 106 120 130 151 178 207 204 204 194 187 189 203 207 201 184 182
238 229 227 231 223 233 246 253 244 254 267 266 246 240 253 226 163 139 136 171 188 129 95 91 85 93 114 114 153 163 163 183 196 183 189 196 210 195 190 209 219 184 146
272 267 274 294 293 297 278 275 278 290 290 294 290 200 236 245 261 246 177 177 138 119 102 92 98 107 109 118 106 111 160 156 152 157 165 191 200 195 173 189 214 218 186
315 289 325 336 330 362 343 330 336 318 315 277 261 248 255 228 206 233 222 214 188 157 143 140 118 113 111 100 127 152 117 99 105 130 138 135 135 141 145 135 168 221 187
339 327 361 369 396 429 412 413 390 335 295 272 253 203 254 232 240 227 232 236 271 262 202 147 120 96 111 101 86 87 78 93 98 104 114 129 121 118 113 108 117 136 168
396 428 401 373 411 439 480 423 384 322 271 286 288 226 228 212 204 210 211 237 219 241 204 109 118 107 99 67 49 56 84 87 91 92 92 102 118 113 88 78 99 119 137
499 467 468 459 467 478 452 441 392 331 297 230 250 243 206 195 199 196 209 249 262 246 213 143 119 111 53 57 67 67 82 66 61 81 113 144 140 114 94 77 73 101 100
495 516 502 472 519 536 511 389 361 273 277 262 238 209 190 178 180 192 218 249 247 250 259 201 152 78 64 67 61 64 92 54 68 71 93 116 126 92 58 46 48 60 86
474 500 531 612 640 580 413 373 252 268 266 225 199 173 170 167 175 201 208 217 231 227 201 147 125 83 66 63 100 119 118 123 102 47 62 80 74 57 46 45 33 31 71
468 543 666 652 630 530 283 362 249 250 220 190 183 170 165 171 173 178 185 215 205 164 151 112 86 72 60 66 95 95 101 100 85 52 56 58 50 48 41 39 16 11 46
525 567 673 680 606 508 220 241 243 225 262 203 164 153 146 163 164 179 195 207 166 133 132 106 92 69 71 76 96 81 76 77 80 38 52 69 54 72 55 32 17 11 11
479 556 612 620 378 251 302 309 242 317 267 199 166 160 162 164 174 179 196 161 126 124 103 85 72 69 69 82 69 55 74 85 98 98 75 65 59 46 36 35 27 18 -8
455 522 515 416 345 248 286 297 288 295 211 208 197 172 165 169 178 205 180 133 138 114 91 70 62 69 74 59 48 79 70 80 126 85 76 72 47 23 29 41 59 49 0
489 493 432 392 351 326 297 335 310 245 233 211 181 169 167 173 164 162 139 123 111 83 66 61 66 64 64 63 80 60 52 50 74 71 64 85 25 25 20 45 60 47 -8
489 458 444 426 410 394 372 303 304 298 263 193 172 153 147 130 147 131 110 95 83 52 41 49 46 51 55 57 56 56 53 52 71 93 45 45 16 28 59 45 200 18 -65
516 485 499 475 470 403 355 349 335 314 268 195 147 136 100 145 114 111 93 84 75 63 53 52 49 40 44 29 38 73 54 52 84 58 27 37 30 35 79 93 219 18 -10
582 519 493 507 482 432 367 343 336 292 264 236 176 127 142 152 95 89 84 77 74 67 60 41 29 36 45 49 50 47 48 39 48 61 41 35 42 66 30 94 226 173 85
611 585 565 494 421 377 317 294 315 324 298 240 187 189 140 97 78 94 79 78 75 70 69 60 65 74 75 71 69 67 56 53 62 48 39 49 63 65 68 53 240 313 294